Track STARLINK 1063 now! 10-day predictions STARLINK 1063 is classified as:
1 44768U 19074BH 21027.15746507 -.00000795 00000-0 -34466-4 0 9997 2 44768 53.0585 330.2799 0002317 61.7011 298.4211 15.06399641 66888